IT9CNT Weather Reports


time (UTC)temp
C
wind
direction
speed
KPH
gust
KPH
rain 1hr
cm
rain 24hr
cm
rain mn
cm
humidity
%
barometer
mb
20260504141303 17 178 14.5 17.7 0.00 0.00 0.00 77 1016.0
20260504141203 17 181 14.5 17.7 0.00 0.00 0.00 76 1016.1
20260504141103 17 175 14.5 17.7 0.00 0.00 0.00 77 1016.2
20260504141003 17 174 14.5 17.7 0.00 0.00 0.00 77 1016.0
20260504140903 17 173 16.1 17.7 0.00 0.00 0.00 76 1016.0
20260504140803 17 174 16.1 17.7 0.00 0.00 0.00 77 1016.0
20260504140703 17 177 14.5 17.7 0.00 0.00 0.00 76 1016.1
20260504140603 17 177 14.5 17.7 0.00 0.00 0.00 76 1016.0
20260504140503 17 171 12.9 17.7 0.00 0.00 0.00 77 1016.2
20260504140403 17 170 11.3 17.7 0.00 0.00 0.00 76 1015.9
20260504140303 17 170 11.3 17.7 0.00 0.00 0.00 76 1016.2
20260504140203 17 168 11.3 22.5 0.00 0.00 0.00 75 1016.2
20260504140103 17 177 12.9 22.5 0.00 0.00 0.00 76 1016.0
20260504130803 17 203 17.7 20.9 0.00 0.00 0.00 74 1016.6
20260504130703 17 206 17.7 20.9 0.00 0.00 0.00 74 1016.6
20260504130603 17 209 17.7 20.9 0.00 0.00 0.00 74 1016.7
20260504130503 17 207 17.7 20.9 0.00 0.00 0.00 75 1016.9
20260504130403 17 209 16.1 17.7 0.00 0.00 0.00 75 1016.8
20260504130303 17 206 16.1 17.7 0.00 0.00 0.00 75 1016.9
20260504130203 17 203 16.1 17.7 0.00 0.00 0.00 75 1016.9
20260504130103 17 208 16.1 17.7 0.00 0.00 0.00 75 1016.9
20260504120303 18 164 12.9 17.7 0.00 0.00 0.00 76 1017.1
20260504120203 18 161 12.9 17.7 0.00 0.00 0.00 75 1017.1
20260504120108 18 158 12.9 17.7 0.00 0.00 0.00 76 1017.1
20260504110703 18 221 9.7 14.5 0.00 0.00 0.00 76 1017.5
20260504110603 18 228 9.7 17.7 0.00 0.00 0.00 75 1017.3
20260504110503 17 238 9.7 17.7 0.00 0.00 0.00 76 1017.4
20260504110403 17 238 9.7 17.7 0.00 0.00 0.00 76 1017.4
20260504110203 17 224 11.3 17.7 0.00 0.00 0.00 76 1017.4
20260504110103 17 227 11.3 17.7 0.00 0.00 0.00 76 1017.5
20260504100603 17 176 9.7 12.9 0.00 0.00 0.00 74 1017.9
20260504100508 17 173 9.7 12.9 0.00 0.00 0.00 74 1017.8
20260504100403 17 173 9.7 12.9 0.00 0.00 0.00 74 1017.9
20260504100303 18 172 8.0 12.9 0.00 0.00 0.00 73 1017.8
20260504100203 17 169 8.0 12.9 0.00 0.00 0.00 74 1017.8
20260504100103 18 170 9.7 12.9 0.00 0.00 0.00 74 1017.9
20260504082004 16 116 9.7 12.9 0.00 0.00 0.00 61 1017.8
20260504081903 16 116 9.7 12.9 0.00 0.00 0.00 61 1017.8
20260504081803 16 119 9.7 12.9 0.00 0.00 0.00 60 1017.8
20260504081703 16 128 8.0 12.9 0.00 0.00 0.00 60 1017.8
20260504081603 16 136 8.0 12.9 0.00 0.00 0.00 60 1017.8
20260504081503 16 140 9.7 14.5 0.00 0.00 0.00 60 1017.8
20260504081403 16 145 9.7 14.5 0.00 0.00 0.00 60 1017.8
20260504081303 16 153 8.0 14.5 0.00 0.00 0.00 59 1017.8
20260504081203 17 165 8.0 14.5 0.00 0.00 0.00 59 1017.8
20260504081103 17 171 6.4 14.5 0.00 0.00 0.00 60 1017.8
20260504081003 16 174 6.4 14.5 0.00 0.00 0.00 60 1017.8
20260504080903 16 167 6.4 14.5 0.00 0.00 0.00 60 1017.8
20260504080803 16 163 6.4 14.5 0.00 0.00 0.00 61 1017.8
20260504080703 16 156 6.4 14.5 0.00 0.00 0.00 61 1017.8
20260504080603 16 155 6.4 14.5 0.00 0.00 0.00 60 1017.8
20260504080503 16 156 4.8 12.9 0.00 0.00 0.00 59 1017.8
20260504080403 17 162 4.8 14.5 0.00 0.00 0.00 60 1017.7
20260504080303 16 166 6.4 14.5 0.00 0.00 0.00 60 1017.7
20260504080203 16 166 6.4 14.5 0.00 0.00 0.00 62 1017.7
20260504080103 16 157 8.0 14.5 0.00 0.00 0.00 62 1017.9
20260504070403 15 140 8.0 12.9 0.00 0.00 0.00 66 1017.7
20260504070303 15 144 6.4 12.9 0.00 0.00 0.00 66 1017.6
20260504070203 15 145 6.4 12.9 0.00 0.00 0.00 66 1017.8
20260504060203 15 90 0.0 6.4 0.00 0.00 0.00 68 1017.2
20260504050603 12 0 0.0 0.0 0.00 0.00 0.00 75 1017.4
20260504050503 12 0 0.0 0.0 0.00 0.00 0.00 75 1017.2
20260504050403 12 0 0.0 0.0 0.00 0.00 0.00 75 1017.4
20260504050303 12 0 0.0 0.0 0.00 0.00 0.00 76 1017.3
20260504050203 12 0 0.0 0.0 0.00 0.00 0.00 76 1017.1
20260504050103 12 0 0.0 0.0 0.00 0.00 0.00 76 1017.0
20260504050003 12 0 0.0 0.0 0.00 0.00 0.00 76 1017.2
20260504045903 12 0 0.0 0.0 0.00 0.00 0.00 76 1017.0
20260504045803 12 0 0.0 0.0 0.00 0.00 0.00 76 1017.2
20260504045703 12 0 0.0 0.0 0.00 0.00 0.00 76 1017.0
20260504045603 12 0 0.0 0.0 0.00 0.00 0.00 76 1017.1
20260504045503 12 0 0.0 0.0 0.00 0.00 0.00 76 1016.9
20260504045403 12 0 0.0 0.0 0.00 0.00 0.00 76 1017.0
20260504045304 12 0 0.0 0.0 0.00 0.00 0.00 76 1017.0
20260504045203 12 0 0.0 0.0 0.00 0.00 0.00 76 1016.9
20260504045103 12 0 0.0 0.0 0.00 0.00 0.00 76 1017.1
20260504045003 12 0 0.0 0.0 0.00 0.00 0.00 76 1016.9
20260504044903 12 0 0.0 0.0 0.00 0.00 0.00 76 1017.0
20260504044803 12 0 0.0 0.0 0.00 0.00 0.00 76 1016.8
20260504044703 12 0 0.0 0.0 0.00 0.00 0.00 76 1016.9
20260504044603 12 0 0.0 0.0 0.00 0.00 0.00 76 1016.9
20260504044504 12 0 0.0 0.0 0.00 0.00 0.00 77 1017.2
20260504044403 12 0 0.0 0.0 0.00 0.00 0.00 77 1017.1
20260504044303 12 0 0.0 0.0 0.00 0.00 0.00 77 1017.0
20260504044203 12 0 0.0 0.0 0.00 0.00 0.00 77 1017.0
20260504044103 12 0 0.0 0.0 0.00 0.00 0.00 77 1016.9
20260504044003 12 0 0.0 0.0 0.00 0.00 0.00 76 1017.1
20260504043903 12 0 0.0 0.0 0.00 0.00 0.00 76 1016.9
20260504043803 12 0 0.0 0.0 0.00 0.00 0.00 76 1017.1
20260504043703 12 0 0.0 0.0 0.00 0.00 0.00 76 1017.1
20260504043603 12 0 0.0 0.0 0.00 0.00 0.00 77 1017.1
20260504043503 12 0 0.0 0.0 0.00 0.00 0.00 77 1017.0
20260504043403 12 0 0.0 0.0 0.00 0.00 0.00 77 1016.9
20260504043303 12 0 0.0 0.0 0.00 0.00 0.00 77 1016.9
20260504043203 12 0 0.0 0.0 0.00 0.00 0.00 77 1016.9
20260504043103 12 0 0.0 0.0 0.00 0.00 0.00 77 1016.9
20260504043003 12 0 0.0 0.0 0.00 0.00 0.00 77 1016.9
20260504042903 12 0 0.0 0.0 0.00 0.00 0.00 77 1016.8
20260504042803 12 0 0.0 0.0 0.00 0.00 0.00 77 1017.0
20260504042703 12 0 0.0 0.0 0.00 0.00 0.00 77 1016.8
20260504042603 12 0 0.0 0.0 0.00 0.00 0.00 77 1016.8
20260504042503 12 0 0.0 0.0 0.00 0.00 0.00 77 1016.8
20260504042403 12 0 0.0 0.0 0.00 0.00 0.00 77 1016.8
20260504042304 12 0 0.0 0.0 0.00 0.00 0.00 77 1016.8
20260504042203 12 0 0.0 0.0 0.00 0.00 0.00 77 1016.8
20260504042103 12 0 0.0 0.0 0.00 0.00 0.00 77 1016.6
20260504042003 12 0 0.0 0.0 0.00 0.00 0.00 77 1016.6
20260504041903 12 0 0.0 0.0 0.00 0.00 0.00 77 1016.6
20260504041803 12 0 0.0 0.0 0.00 0.00 0.00 77 1016.6
20260504041703 12 0 0.0 0.0 0.00 0.00 0.00 77 1016.6
20260504041603 11 0 0.0 0.0 0.00 0.00 0.00 77 1016.6
20260504041503 11 0 0.0 0.0 0.00 0.00 0.00 77 1016.6
20260504041403 11 0 0.0 0.0 0.00 0.00 0.00 77 1016.6
20260504041303 11 0 0.0 0.0 0.00 0.00 0.00 77 1016.6
20260504041203 12 0 0.0 0.0 0.00 0.00 0.00 77 1016.6
20260504041103 11 0 0.0 0.0 0.00 0.00 0.00 77 1016.6
20260504041003 11 0 0.0 0.0 0.00 0.00 0.00 77 1016.6
20260504040903 11 0 0.0 0.0 0.00 0.00 0.00 77 1016.6
20260504040803 11 0 0.0 0.0 0.00 0.00 0.00 77 1016.6
20260504040703 11 0 0.0 0.0 0.00 0.00 0.00 77 1016.6
20260504040603 11 0 0.0 0.0 0.00 0.00 0.00 76 1016.6
20260504040503 11 0 0.0 0.0 0.00 0.00 0.00 76 1016.6
20260504040403 11 0 0.0 0.0 0.00 0.00 0.00 76 1016.6
20260504040303 11 0 0.0 0.0 0.00 0.00 0.00 76 1016.6
20260504040203 11 0 0.0 0.0 0.00 0.00 0.00 76 1016.6
20260504040103 11 0 0.0 0.0 0.00 0.00 0.00 76 1016.6
20260504040004 11 0 0.0 0.0 0.00 0.00 0.00 76 1016.6
20260504035903 12 0 0.0 0.0 0.00 0.00 0.00 76 1016.6
20260504035803 12 0 0.0 0.0 0.00 0.00 0.00 76 1016.6
20260504035703 12 0 0.0 0.0 0.00 0.00 0.00 76 1016.6
20260504035603 12 0 0.0 0.0 0.00 0.00 0.00 76 1016.6
20260504035503 12 0 0.0 0.0 0.00 0.00 0.00 76 1016.6
20260504035403 12 0 0.0 0.0 0.00 0.00 0.00 76 1016.6
20260504035305 12 0 0.0 0.0 0.00 0.00 0.00 76 1016.6
20260504035203 12 0 0.0 0.0 0.00 0.00 0.00 76 1016.8
20260504035103 12 0 0.0 0.0 0.00 0.00 0.00 76 1016.7
20260504035003 12 0 0.0 0.0 0.00 0.00 0.00 76 1016.7
20260504034903 12 0 0.0 0.0 0.00 0.00 0.00 76 1016.7
20260504034803 12 0 0.0 0.0 0.00 0.00 0.00 76 1016.5
20260504034703 12 0 0.0 0.0 0.00 0.00 0.00 76 1016.7
20260504034603 12 0 0.0 0.0 0.00 0.00 0.00 76 1016.6
20260504034503 12 0 0.0 0.0 0.00 0.00 0.00 76 1016.6
20260504034403 12 0 0.0 0.0 0.00 0.00 0.00 76 1016.7
20260504034303 12 0 0.0 0.0 0.00 0.00 0.00 76 1016.8
20260504034203 12 0 0.0 0.0 0.00 0.00 0.00 76 1016.5
20260504034103 12 0 0.0 0.0 0.00 0.00 0.00 76 1016.7
20260504034003 12 0 0.0 0.0 0.00 0.00 0.00 76 1016.9
20260504033903 12 0 0.0 0.0 0.00 0.00 0.00 76 1016.8
20260504033803 12 0 0.0 0.0 0.00 0.00 0.00 76 1016.6
20260504033703 12 0 0.0 0.0 0.00 0.00 0.00 76 1016.5
20260504033603 12 0 0.0 0.0 0.00 0.00 0.00 76 1016.5
20260504033503 12 0 0.0 0.0 0.00 0.00 0.00 76 1016.9
20260504033303 12 0 0.0 0.0 0.00 0.00 0.00 76 1016.6
20260504033203 12 0 0.0 0.0 0.00 0.00 0.00 76 1016.7
20260504033103 12 0 0.0 0.0 0.00 0.00 0.00 76 1016.7
20260504033003 11 0 0.0 0.0 0.00 0.00 0.00 76 1016.8
20260504032903 11 0 0.0 0.0 0.00 0.00 0.00 76 1016.8
20260504032803 12 0 0.0 0.0 0.00 0.00 0.00 76 1017.0
20260504032703 12 0 0.0 0.0 0.00 0.00 0.00 76 1016.8
20260504032603 12 0 0.0 0.0 0.00 0.00 0.00 76 1016.5
20260504032503 12 0 0.0 0.0 0.00 0.00 0.00 76 1016.7
20260504032403 12 0 0.0 0.0 0.00 0.00 0.00 76 1016.5
20260504032304 12 0 0.0 0.0 0.00 0.00 0.00 76 1016.6
20260504032203 12 0 0.0 0.0 0.00 0.00 0.00 76 1016.8
20260504032003 12 0 0.0 0.0 0.00 0.00 0.00 76 1016.7
20260504031903 12 0 0.0 0.0 0.00 0.00 0.00 76 1016.6
20260504031803 12 0 0.0 0.0 0.00 0.00 0.00 76 1016.7
20260504031703 12 0 0.0 0.0 0.00 0.00 0.00 76 1016.7
20260504031603 12 0 0.0 0.0 0.00 0.00 0.00 76 1016.7
20260504031503 12 0 0.0 0.0 0.00 0.00 0.00 76 1016.6
20260504031403 12 0 0.0 0.0 0.00 0.00 0.00 76 1016.7
20260504031303 12 0 0.0 0.0 0.00 0.00 0.00 76 1016.4
20260504031203 12 0 0.0 0.0 0.00 0.00 0.00 76 1016.7
20260504031103 12 0 0.0 0.0 0.00 0.00 0.00 76 1016.7
20260504031003 12 0 0.0 0.0 0.00 0.00 0.00 76 1016.6
20260504030903 12 0 0.0 0.0 0.00 0.00 0.00 76 1016.7
20260504030803 12 0 0.0 0.0 0.00 0.00 0.00 76 1016.5
20260504030703 12 0 0.0 0.0 0.00 0.00 0.00 76 1016.5
20260504030603 12 0 0.0 0.0 0.00 0.00 0.00 76 1016.6
20260504030503 12 0 0.0 0.0 0.00 0.00 0.00 76 1016.5
20260504030403 12 0 0.0 0.0 0.00 0.00 0.00 76 1016.6
20260504030303 12 0 0.0 0.0 0.00 0.00 0.00 76 1016.8
20260504030203 12 0 0.0 0.0 0.00 0.00 0.00 76 1016.6
20260504030003 12 0 0.0 0.0 0.00 0.00 0.00 76 1016.8
20260504025903 12 0 0.0 0.0 0.00 0.00 0.00 76 1016.6
20260504025803 11 0 0.0 0.0 0.00 0.00 0.00 76 1016.6
20260504025703 11 0 0.0 0.0 0.00 0.00 0.00 76 1016.5
20260504025603 11 0 0.0 0.0 0.00 0.00 0.00 75 1016.7
20260504025503 11 0 0.0 0.0 0.00 0.00 0.00 75 1016.9
20260504025403 11 0 0.0 0.0 0.00 0.00 0.00 75 1016.6
20260504025304 11 0 0.0 0.0 0.00 0.00 0.00 75 1016.7
20260504025203 11 0 0.0 0.0 0.00 0.00 0.00 75 1016.7
20260504025103 12 0 0.0 0.0 0.00 0.00 0.00 75 1016.7
20260504025003 11 0 0.0 0.0 0.00 0.00 0.00 75 1016.8
20260504024904 11 0 0.0 0.0 0.00 0.00 0.00 75 1016.7
20260504024803 11 0 0.0 0.0 0.00 0.00 0.00 75 1016.6
20260504024703 11 0 0.0 0.0 0.00 0.00 0.00 75 1016.6
20260504024604 11 0 0.0 0.0 0.00 0.00 0.00 75 1016.6
20260504024503 11 0 0.0 0.0 0.00 0.00 0.00 75 1016.7
20260504024403 11 0 0.0 0.0 0.00 0.00 0.00 75 1016.6
20260504024303 12 0 0.0 0.0 0.00 0.00 0.00 75 1016.8
20260504024204 12 0 0.0 0.0 0.00 0.00 0.00 75 1016.8
20260504024103 12 0 0.0 0.0 0.00 0.00 0.00 75 1016.7
20260504024003 12 0 0.0 0.0 0.00 0.00 0.00 75 1016.8
20260504023903 12 0 0.0 0.0 0.00 0.00 0.00 75 1016.7
20260504023803 12 0 0.0 0.0 0.00 0.00 0.00 75 1016.7
20260504023703 12 0 0.0 0.0 0.00 0.00 0.00 75 1016.8
20260504023603 12 0 0.0 0.0 0.00 0.00 0.00 75 1016.8
20260504023503 12 0 0.0 0.0 0.00 0.00 0.00 75 1016.6
20260504023403 12 0 0.0 0.0 0.00 0.00 0.00 75 1016.7
20260504023303 12 0 0.0 0.0 0.00 0.00 0.00 75 1016.8
20260504023203 12 0 0.0 0.0 0.00 0.00 0.00 75 1016.8
20260504023103 12 0 0.0 0.0 0.00 0.00 0.00 75 1016.8
20260504023003 12 0 0.0 0.0 0.00 0.00 0.00 75 1016.8
20260504022903 12 0 0.0 0.0 0.00 0.00 0.00 75 1016.8
20260504022803 12 0 0.0 0.0 0.00 0.00 0.00 75 1016.8
20260504022703 12 0 0.0 0.0 0.00 0.00 0.00 75 1016.5
20260504022603 12 0 0.0 0.0 0.00 0.00 0.00 74 1016.9
20260504022503 12 0 0.0 0.0 0.00 0.00 0.00 74 1016.9
20260504022403 12 0 0.0 0.0 0.00 0.00 0.00 74 1016.6
20260504022304 12 0 0.0 0.0 0.00 0.00 0.00 74 1016.9
20260504022203 12 0 0.0 0.0 0.00 0.00 0.00 74 1016.8
20260504022103 12 0 0.0 0.0 0.00 0.00 0.00 74 1016.8
20260504022003 12 0 0.0 0.0 0.00 0.00 0.00 74 1016.9
20260504021903 12 0 0.0 0.0 0.00 0.00 0.00 74 1016.9
20260504021803 12 0 0.0 0.0 0.00 0.00 0.00 74 1017.0
20260504021703 12 0 0.0 0.0 0.00 0.00 0.00 74 1017.0
20260504021603 12 0 0.0 0.0 0.00 0.00 0.00 74 1016.8
20260504021504 12 0 0.0 0.0 0.00 0.00 0.00 74 1016.8
20260504021403 12 0 0.0 0.0 0.00 0.00 0.00 74 1016.7
20260504021303 12 0 0.0 0.0 0.00 0.00 0.00 74 1016.7
20260504021203 12 0 0.0 0.0 0.00 0.00 0.00 74 1016.9
20260504021103 12 0 0.0 0.0 0.00 0.00 0.00 74 1016.7
20260504021003 12 0 0.0 0.0 0.00 0.00 0.00 74 1016.7
20260504020903 12 0 0.0 0.0 0.00 0.00 0.00 74 1016.7
20260504020803 12 0 0.0 0.0 0.00 0.00 0.00 74 1017.0
20260504020703 12 0 0.0 0.0 0.00 0.00 0.00 74 1016.8
20260504020607 12 0 0.0 0.0 0.00 0.00 0.00 74 1016.9
20260504020504 12 0 0.0 0.0 0.00 0.00 0.00 74 1016.8
20260504020403 12 0 0.0 0.0 0.00 0.00 0.00 74 1016.8
20260504020303 12 0 0.0 0.0 0.00 0.00 0.00 74 1016.8
20260504020103 12 0 0.0 0.0 0.00 0.00 0.00 74 1016.7
20260504020003 12 0 0.0 0.0 0.00 0.00 0.00 74 1016.9
20260504015903 12 0 0.0 0.0 0.00 0.00 0.00 74 1016.8
20260504015803 13 0 0.0 0.0 0.00 0.00 0.00 74 1016.7
20260504015703 13 0 0.0 0.0 0.00 0.00 0.00 74 1016.8
20260504015603 13 0 0.0 0.0 0.00 0.00 0.00 74 1016.7
20260504015503 13 0 0.0 0.0 0.00 0.00 0.00 74 1016.8
20260504015403 13 0 0.0 0.0 0.00 0.00 0.00 74 1016.9
20260504015304 13 0 0.0 0.0 0.00 0.00 0.00 74 1016.7
20260504015203 13 0 0.0 0.0 0.00 0.00 0.00 74 1016.6
20260504015103 13 0 0.0 0.0 0.00 0.00 0.00 74 1016.7
20260504015003 13 0 0.0 0.0 0.00 0.00 0.00 74 1016.6
20260504014903 13 0 0.0 0.0 0.00 0.00 0.00 74 1016.7
20260504014803 13 0 0.0 0.0 0.00 0.00 0.00 74 1016.6
20260504014703 13 0 0.0 0.0 0.00 0.00 0.00 74 1016.5
20260504014603 13 0 0.0 0.0 0.00 0.00 0.00 74 1016.6
20260504014503 13 0 0.0 0.0 0.00 0.00 0.00 74 1016.7
20260504014403 13 0 0.0 0.0 0.00 0.00 0.00 74 1016.8
20260504014303 13 0 0.0 0.0 0.00 0.00 0.00 74 1016.5
20260504014203 13 0 0.0 0.0 0.00 0.00 0.00 74 1016.7
20260504014103 13 0 0.0 0.0 0.00 0.00 0.00 74 1016.5
20260504014003 13 0 0.0 0.0 0.00 0.00 0.00 74 1016.8
20260504013903 13 0 0.0 0.0 0.00 0.00 0.00 74 1016.7
20260504013803 13 0 0.0 0.0 0.00 0.00 0.00 74 1016.6
20260504013703 13 0 0.0 0.0 0.00 0.00 0.00 74 1016.7
20260504013603 13 0 0.0 0.0 0.00 0.00 0.00 74 1016.6
20260504013503 13 0 0.0 0.0 0.00 0.00 0.00 74 1016.7
20260504013403 13 0 0.0 0.0 0.00 0.00 0.00 74 1016.8
20260504013303 13 0 0.0 0.0 0.00 0.00 0.00 74 1016.6
20260504013203 13 0 0.0 0.0 0.00 0.00 0.00 74 1016.6
20260504013103 13 0 0.0 0.0 0.00 0.00 0.00 74 1016.4
20260504013003 13 0 0.0 0.0 0.00 0.00 0.00 74 1016.6
20260504012903 13 0 0.0 0.0 0.00 0.00 0.00 74 1016.8
20260504012803 13 0 0.0 0.0 0.00 0.00 0.00 74 1016.6
20260504012703 13 0 0.0 0.0 0.00 0.00 0.00 74 1016.6
20260504012603 13 0 0.0 0.0 0.00 0.00 0.00 74 1016.4
20260504012503 13 0 0.0 0.0 0.00 0.00 0.00 74 1016.5
20260504012403 13 0 0.0 0.0 0.00 0.00 0.00 74 1016.7
20260504012304 13 0 0.0 0.0 0.00 0.00 0.00 74 1016.5
20260504012203 13 0 0.0 0.0 0.00 0.00 0.00 74 1016.6
20260504012103 13 0 0.0 0.0 0.00 0.00 0.00 74 1016.5
20260504012003 13 0 0.0 0.0 0.00 0.00 0.00 74 1016.5
20260504011903 13 0 0.0 0.0 0.00 0.00 0.00 74 1016.8
20260504011803 13 0 0.0 0.0 0.00 0.00 0.00 74 1016.6
20260504011703 13 0 0.0 0.0 0.00 0.00 0.00 73 1016.5
20260504011603 13 0 0.0 0.0 0.00 0.00 0.00 73 1016.5
20260504011503 13 0 0.0 0.0 0.00 0.00 0.00 73 1016.6
20260504011403 13 0 0.0 0.0 0.00 0.00 0.00 73 1016.7
20260504011303 13 0 0.0 0.0 0.00 0.00 0.00 73 1016.6
20260504011203 13 0 0.0 0.0 0.00 0.00 0.00 73 1016.5
20260504011103 13 0 0.0 0.0 0.00 0.00 0.00 73 1016.6
20260504011003 13 0 0.0 0.0 0.00 0.00 0.00 73 1016.4
20260504010803 13 0 0.0 0.0 0.00 0.00 0.00 73 1016.6
20260504010703 13 0 0.0 0.0 0.00 0.00 0.00 73 1016.5
20260504010603 13 0 0.0 0.0 0.00 0.00 0.00 73 1016.6
20260504010503 13 0 0.0 0.0 0.00 0.00 0.00 73 1016.5
20260504010403 13 0 0.0 0.0 0.00 0.00 0.00 73 1016.5
20260504010303 13 0 0.0 0.0 0.00 0.00 0.00 73 1016.8
20260504010208 13 0 0.0 0.0 0.00 0.00 0.00 73 1016.8
20260504010004 13 0 0.0 0.0 0.00 0.00 0.00 73 1016.6
20260504005903 13 0 0.0 0.0 0.00 0.00 0.00 73 1016.8
20260504005803 12 0 0.0 0.0 0.00 0.00 0.00 72 1016.7
20260504005703 12 0 0.0 0.0 0.00 0.00 0.00 72 1016.7
20260504005603 12 0 0.0 0.0 0.00 0.00 0.00 72 1016.8
20260504005503 12 0 0.0 0.0 0.00 0.00 0.00 72 1016.6
20260504005304 12 0 0.0 0.0 0.00 0.00 0.00 72 1016.8
20260504005203 12 0 0.0 0.0 0.00 0.00 0.00 72 1016.8
20260504005104 12 0 0.0 0.0 0.00 0.00 0.00 72 1016.8
20260504005004 12 0 0.0 0.0 0.00 0.00 0.00 72 1016.7
20260504004903 12 0 0.0 0.0 0.00 0.00 0.00 72 1016.8
20260504004803 12 0 0.0 0.0 0.00 0.00 0.00 72 1016.8
20260504004703 12 0 0.0 0.0 0.00 0.00 0.00 72 1016.9
20260504004603 12 0 0.0 0.0 0.00 0.00 0.00 72 1016.7
20260504004503 12 0 0.0 0.0 0.00 0.00 0.00 72 1016.7
20260504004403 12 0 0.0 0.0 0.00 0.00 0.00 72 1016.8
20260504004303 12 0 0.0 0.0 0.00 0.00 0.00 72 1016.7
20260504004203 12 0 0.0 0.0 0.00 0.00 0.00 72 1016.9
20260504004103 12 0 0.0 0.0 0.00 0.00 0.00 72 1016.9
20260504004003 12 0 0.0 0.0 0.00 0.00 0.00 71 1016.7
20260504003903 12 0 0.0 0.0 0.00 0.00 0.00 71 1016.9
20260504003803 12 0 0.0 0.0 0.00 0.00 0.00 71 1016.7
20260504003703 12 0 0.0 0.0 0.00 0.00 0.00 71 1016.8
20260504003603 12 0 0.0 0.0 0.00 0.00 0.00 71 1016.8
20260504003503 13 0 0.0 0.0 0.00 0.00 0.00 71 1016.8
20260504003403 13 0 0.0 0.0 0.00 0.00 0.00 71 1016.8
20260504003303 13 0 0.0 0.0 0.00 0.00 0.00 71 1016.8
20260504003203 13 0 0.0 0.0 0.00 0.00 0.00 71 1016.7
20260504003103 13 0 0.0 0.0 0.00 0.00 0.00 71 1016.6
20260504003003 13 0 0.0 0.0 0.00 0.00 0.00 71 1016.5
20260504002903 13 0 0.0 0.0 0.00 0.00 0.00 71 1016.9
20260504002803 13 0 0.0 0.0 0.00 0.00 0.00 71 1016.7
20260504002703 13 0 0.0 0.0 0.00 0.00 0.00 71 1016.7
20260504002603 13 0 0.0 0.0 0.00 0.00 0.00 71 1016.9
20260504002503 13 0 0.0 0.0 0.00 0.00 0.00 71 1016.5
20260504002403 13 0 0.0 0.0 0.00 0.00 0.00 70 1016.7
20260504002304 13 0 0.0 0.0 0.00 0.00 0.00 70 1016.7
20260504002203 13 0 0.0 0.0 0.00 0.00 0.00 70 1016.7
20260504002103 13 0 0.0 0.0 0.00 0.00 0.00 70 1016.8
20260504002003 13 0 0.0 0.0 0.00 0.00 0.00 70 1016.7
20260504001903 13 0 0.0 0.0 0.00 0.00 0.00 70 1016.9
20260504001803 13 0 0.0 0.0 0.00 0.00 0.00 70 1016.9
20260504001703 13 0 0.0 0.0 0.00 0.00 0.00 70 1016.8
20260504001603 13 0 0.0 0.0 0.00 0.00 0.00 70 1016.9
20260504001503 13 0 0.0 0.0 0.00 0.00 0.00 70 1016.8
20260504001403 13 0 0.0 0.0 0.00 0.00 0.00 70 1016.8
20260504001303 13 0 0.0 0.0 0.00 0.00 0.00 70 1017.1
20260504001203 13 0 0.0 0.0 0.00 0.00 0.00 70 1016.8
20260504001103 13 0 0.0 0.0 0.00 0.00 0.00 70 1016.7
20260504001003 13 0 0.0 0.0 0.00 0.00 0.00 70 1016.9
20260504000903 13 0 0.0 0.0 0.00 0.00 0.00 70 1016.9
20260504000803 13 0 0.0 0.0 0.00 0.00 0.00 70 1017.1
20260504000703 13 0 0.0 0.0 0.00 0.00 0.00 70 1016.9
20260504000603 13 0 0.0 0.0 0.00 0.00 0.00 70 1017.0
20260504000503 13 0 0.0 0.0 0.00 0.00 0.00 70 1016.9
20260504000403 13 0 0.0 0.0 0.00 0.00 0.00 70 1017.2
20260504000303 13 0 0.0 0.0 0.00 0.00 0.00 70 1017.2
20260504000204 13 0 0.0 0.0 0.00 0.00 0.00 70 1016.9
20260504000004 13 0 0.0 0.0 0.00 0.00 0.00 70 1017.0
20260503235903 13 0 0.0 0.0 0.00 0.00 0.00 70 1017.2
20260503235803 12 0 0.0 0.0 0.00 0.00 0.00 70 1017.0
20260503235703 12 0 0.0 0.0 0.00 0.00 0.00 69 1017.0
20260503235603 12 0 0.0 0.0 0.00 0.00 0.00 69 1017.2
20260503235503 12 0 0.0 0.0 0.00 0.00 0.00 69 1017.2
20260503235403 12 0 0.0 0.0 0.00 0.00 0.00 69 1016.9
20260503235304 12 0 0.0 0.0 0.00 0.00 0.00 69 1017.3
20260503235203 12 0 0.0 0.0 0.00 0.00 0.00 69 1017.1
20260503235103 12 0 0.0 0.0 0.00 0.00 0.00 69 1017.2
20260503235003 12 0 0.0 0.0 0.00 0.00 0.00 69 1017.1
20260503234903 12 0 0.0 0.0 0.00 0.00 0.00 69 1017.1
20260503234803 12 0 0.0 0.0 0.00 0.00 0.00 69 1017.1
20260503234703 12 0 0.0 0.0 0.00 0.00 0.00 69 1017.1
20260503234603 12 0 0.0 0.0 0.00 0.00 0.00 69 1017.0
20260503234503 13 0 0.0 0.0 0.00 0.00 0.00 69 1017.0
20260503234403 13 0 0.0 0.0 0.00 0.00 0.00 69 1017.0
20260503234303 13 0 0.0 0.0 0.00 0.00 0.00 69 1017.1
20260503234203 13 0 0.0 0.0 0.00 0.00 0.00 69 1017.1
20260503234103 13 0 0.0 0.0 0.00 0.00 0.00 69 1017.2
20260503234003 13 0 0.0 0.0 0.00 0.00 0.00 69 1017.1
20260503233903 13 0 0.0 0.0 0.00 0.00 0.00 69 1016.9
20260503233803 12 0 0.0 0.0 0.00 0.00 0.00 69 1017.1
20260503233703 12 0 0.0 0.0 0.00 0.00 0.00 69 1017.0
20260503233603 12 0 0.0 0.0 0.00 0.00 0.00 69 1017.2
20260503233503 12 0 0.0 0.0 0.00 0.00 0.00 69 1017.0
20260503233403 12 0 0.0 0.0 0.00 0.00 0.00 69 1017.2
20260503233303 12 0 0.0 0.0 0.00 0.00 0.00 69 1017.1
20260503233203 12 0 0.0 0.0 0.00 0.00 0.00 69 1017.2
20260503233103 12 0 0.0 0.0 0.00 0.00 0.00 69 1017.4
20260503233003 12 0 0.0 0.0 0.00 0.00 0.00 69 1017.3
20260503232903 13 0 0.0 0.0 0.00 0.00 0.00 69 1017.4
20260503232803 13 0 0.0 0.0 0.00 0.00 0.00 69 1017.2
20260503232703 13 0 0.0 0.0 0.00 0.00 0.00 69 1017.3
20260503232603 13 0 0.0 0.0 0.00 0.00 0.00 69 1017.2
20260503232503 13 0 0.0 0.0 0.00 0.00 0.00 69 1017.3
20260503232403 13 0 0.0 0.0 0.00 0.00 0.00 69 1017.3
20260503232305 13 0 0.0 0.0 0.00 0.00 0.00 69 1017.1
20260503232203 13 0 0.0 0.0 0.00 0.00 0.00 69 1017.4
20260503232103 13 0 0.0 0.0 0.00 0.00 0.00 69 1017.3
20260503232003 13 0 0.0 0.0 0.00 0.00 0.00 69 1017.4
20260503231903 13 0 0.0 0.0 0.00 0.00 0.00 69 1017.2
20260503231803 13 0 0.0 0.0 0.00 0.00 0.00 69 1017.3
20260503231703 13 0 0.0 0.0 0.00 0.00 0.00 70 1017.4
20260503231603 13 0 0.0 0.0 0.00 0.00 0.00 70 1017.5
20260503231503 13 0 0.0 0.0 0.00 0.00 0.00 70 1017.1
20260503231403 12 0 0.0 0.0 0.00 0.00 0.00 70 1017.3
20260503231303 12 0 0.0 0.0 0.00 0.00 0.00 70 1017.3
20260503231003 12 0 0.0 0.0 0.00 0.00 0.00 70 1017.2
20260503230903 12 0 0.0 0.0 0.00 0.00 0.00 70 1017.3
20260503230803 12 0 0.0 0.0 0.00 0.00 0.00 70 1017.4
20260503230703 12 0 0.0 0.0 0.00 0.00 0.00 70 1017.3
20260503230603 12 0 0.0 0.0 0.00 0.00 0.00 70 1017.3
20260503230503 12 0 0.0 0.0 0.00 0.00 0.00 70 1017.3
20260503230403 12 0 0.0 0.0 0.00 0.00 0.00 71 1017.3
20260503230303 12 0 0.0 0.0 0.00 0.00 0.00 71 1017.4
20260503230203 12 0 0.0 0.0 0.00 0.00 0.00 71 1017.0
20260503230103 12 0 0.0 0.0 0.00 0.00 0.00 71 1017.3
20260503230004 12 0 0.0 0.0 0.00 0.00 0.00 71 1017.4
20260503225903 12 0 0.0 0.0 0.00 0.00 0.00 71 1017.3
20260503225803 12 0 0.0 0.0 0.00 0.00 0.00 71 1017.4
20260503225704 12 0 0.0 0.0 0.00 0.00 0.00 71 1017.3
20260503225603 12 0 0.0 0.0 0.00 0.00 0.00 71 1017.4
20260503225503 12 0 0.0 0.0 0.00 0.00 0.00 71 1017.3
20260503225403 12 0 0.0 0.0 0.00 0.00 0.00 71 1017.3
20260503225304 12 0 0.0 0.0 0.00 0.00 0.00 71 1017.5
20260503225203 12 0 0.0 0.0 0.00 0.00 0.00 71 1017.3
20260503225103 12 0 0.0 0.0 0.00 0.00 0.00 71 1017.3
20260503225003 12 0 0.0 0.0 0.00 0.00 0.00 71 1017.3
20260503224903 12 0 0.0 0.0 0.00 0.00 0.00 71 1017.5
20260503224803 12 0 0.0 0.0 0.00 0.00 0.00 71 1017.0
20260503224703 12 0 0.0 0.0 0.00 0.00 0.00 71 1017.3
20260503224603 12 0 0.0 0.0 0.00 0.00 0.00 71 1017.3
20260503224503 12 0 0.0 0.0 0.00 0.00 0.00 71 1017.1
20260503224403 12 0 0.0 0.0 0.00 0.00 0.00 71 1017.5
20260503224303 12 0 0.0 0.0 0.00 0.00 0.00 71 1017.3
20260503224203 12 0 0.0 0.0 0.00 0.00 0.00 70 1017.3
20260503224103 12 0 0.0 0.0 0.00 0.00 0.00 70 1017.3
20260503224003 12 0 0.0 0.0 0.00 0.00 0.00 70 1017.3
20260503223903 12 0 0.0 0.0 0.00 0.00 0.00 70 1017.5
20260503223803 12 0 0.0 0.0 0.00 0.00 0.00 70 1017.5
20260503223703 12 0 0.0 0.0 0.00 0.00 0.00 70 1017.5
20260503223603 12 0 0.0 0.0 0.00 0.00 0.00 70 1017.5
20260503223503 12 0 0.0 0.0 0.00 0.00 0.00 70 1017.6
20260503223403 12 0 0.0 0.0 0.00 0.00 0.00 70 1017.5
20260503223303 12 0 0.0 0.0 0.00 0.00 0.00 70 1017.4
20260503223203 12 0 0.0 0.0 0.00 0.00 0.00 70 1017.4
20260503223104 12 0 0.0 0.0 0.00 0.00 0.00 70 1017.4
20260503223003 12 0 0.0 0.0 0.00 0.00 0.00 70 1017.4
20260503222903 12 0 0.0 0.0 0.00 0.00 0.00 70 1017.4
20260503222803 12 0 0.0 0.0 0.00 0.00 0.00 70 1017.4
20260503222703 12 0 0.0 0.0 0.00 0.00 0.00 70 1017.6
20260503222603 12 0 0.0 0.0 0.00 0.00 0.00 70 1017.2
20260503222503 12 0 0.0 0.0 0.00 0.00 0.00 70 1017.3
20260503222403 12 0 0.0 0.0 0.00 0.00 0.00 70 1017.2
20260503222304 12 0 0.0 0.0 0.00 0.00 0.00 70 1017.4
20260503222203 12 0 0.0 0.0 0.00 0.00 0.00 70 1017.5
20260503222103 12 0 0.0 0.0 0.00 0.00 0.00 70 1017.3
20260503222003 12 0 0.0 0.0 0.00 0.00 0.00 69 1017.4
20260503221903 12 0 0.0 0.0 0.00 0.00 0.00 69 1017.4
20260503221803 12 0 0.0 0.0 0.00 0.00 0.00 69 1017.5
20260503221703 12 0 0.0 0.0 0.00 0.00 0.00 69 1017.5
20260503221603 12 0 0.0 0.0 0.00 0.00 0.00 69 1017.5
20260503221503 12 0 0.0 0.0 0.00 0.00 0.00 69 1017.5
20260503221403 12 0 0.0 0.0 0.00 0.00 0.00 69 1017.5
20260503221303 12 0 0.0 0.0 0.00 0.00 0.00 69 1017.3
20260503221203 12 0 0.0 0.0 0.00 0.00 0.00 69 1017.4
20260503221103 12 0 0.0 0.0 0.00 0.00 0.00 69 1017.5
20260503221003 12 0 0.0 0.0 0.00 0.00 0.00 69 1017.5
20260503220903 12 0 0.0 0.0 0.00 0.00 0.00 69 1017.6
20260503220803 12 0 0.0 0.0 0.00 0.00 0.00 69 1017.6
20260503220703 12 0 0.0 0.0 0.00 0.00 0.00 69 1017.6
20260503220603 12 0 0.0 0.0 0.00 0.00 0.00 69 1017.4
20260503220503 13 0 0.0 0.0 0.00 0.00 0.00 69 1017.4
20260503220403 13 0 0.0 0.0 0.00 0.00 0.00 69 1017.4
20260503220303 13 0 0.0 0.0 0.00 0.00 0.00 68 1017.5
20260503220203 13 0 0.0 0.0 0.00 0.00 0.00 68 1017.5
20260503220103 13 0 0.0 0.0 0.00 0.00 0.00 68 1017.5
20260503220027 13 0 0.0 0.0 0.00 0.00 0.00 68 1017.5
20260503215903 13 0 0.0 0.0 0.00 0.00 0.00 68 1017.4
20260503215803 13 0 0.0 0.0 0.00 0.00 0.00 69 1017.4
20260503215703 13 0 0.0 0.0 0.00 0.00 0.00 69 1017.4
20260503215603 13 0 0.0 0.0 0.00 0.00 0.00 69 1017.3
20260503215503 13 0 0.0 0.0 0.00 0.00 0.00 69 1017.4
20260503215403 13 0 0.0 0.0 0.00 0.00 0.00 69 1017.4
20260503215304 12 0 0.0 0.0 0.00 0.00 0.00 69 1017.6
20260503215203 12 0 0.0 0.0 0.00 0.00 0.00 69 1017.3
20260503215103 12 0 0.0 0.0 0.00 0.00 0.00 69 1017.3
20260503215003 13 0 0.0 0.0 0.00 0.00 0.00 69 1017.4
20260503214903 13 0 0.0 0.0 0.00 0.00 0.00 69 1017.4
20260503214803 13 0 0.0 0.0 0.00 0.00 0.00 69 1017.3
20260503214703 13 0 0.0 0.0 0.00 0.00 0.00 69 1017.2
20260503214603 12 0 0.0 0.0 0.00 0.00 0.00 69 1017.3
20260503214503 12 0 0.0 0.0 0.00 0.00 0.00 69 1017.3
20260503214403 12 0 0.0 0.0 0.00 0.00 0.00 69 1017.4
20260503214303 13 0 0.0 0.0 0.00 0.00 0.00 69 1017.4
20260503214203 13 0 0.0 0.0 0.00 0.00 0.00 69 1017.5
20260503214103 13 0 0.0 0.0 0.00 0.00 0.00 69 1017.4
20260503214003 13 0 0.0 0.0 0.00 0.00 0.00 69 1017.3
20260503213903 13 0 0.0 0.0 0.00 0.00 0.00 69 1017.4
20260503213803 13 0 0.0 0.0 0.00 0.00 0.00 69 1017.4
20260503213703 13 0 0.0 0.0 0.00 0.00 0.00 70 1017.3
20260503213603 13 0 0.0 0.0 0.00 0.00 0.00 70 1017.3
20260503213503 13 0 0.0 0.0 0.00 0.00 0.00 70 1017.3
20260503213403 13 0 0.0 0.0 0.00 0.00 0.00 70 1017.4
20260503213303 13 0 0.0 0.0 0.00 0.00 0.00 70 1017.3
20260503213203 12 0 0.0 0.0 0.00 0.00 0.00 69 1017.4
20260503213103 12 0 0.0 0.0 0.00 0.00 0.00 69 1017.4
20260503213003 12 0 0.0 0.0 0.00 0.00 0.00 69 1017.3
20260503212903 12 0 0.0 0.0 0.00 0.00 0.00 69 1017.5
20260503212803 12 0 0.0 0.0 0.00 0.00 0.00 69 1017.2
20260503212703 12 0 0.0 0.0 0.00 0.00 0.00 69 1017.3
20260503212603 12 0 0.0 0.0 0.00 0.00 0.00 69 1017.4
20260503212503 12 0 0.0 0.0 0.00 0.00 0.00 69 1017.6
20260503212403 12 0 0.0 0.0 0.00 0.00 0.00 69 1017.5
20260503212305 12 0 0.0 0.0 0.00 0.00 0.00 69 1017.4
20260503212203 13 0 0.0 0.0 0.00 0.00 0.00 69 1017.5
20260503212103 13 0 0.0 0.0 0.00 0.00 0.00 69 1017.3
20260503212003 13 0 0.0 0.0 0.00 0.00 0.00 69 1017.4
20260503211903 13 0 0.0 0.0 0.00 0.00 0.00 69 1017.4
20260503211703 13 0 0.0 0.0 0.00 0.00 0.00 69 1017.4
20260503211603 13 0 0.0 0.0 0.00 0.00 0.00 69 1017.4
20260503211503 13 0 0.0 0.0 0.00 0.00 0.00 69 1017.5
20260503211403 13 0 0.0 0.0 0.00 0.00 0.00 69 1017.3
20260503211303 13 0 0.0 0.0 0.00 0.00 0.00 69 1017.4
20260503211203 13 0 0.0 0.0 0.00 0.00 0.00 69 1017.3
20260503211103 13 0 0.0 0.0 0.00 0.00 0.00 69 1017.6
20260503211003 13 0 0.0 0.0 0.00 0.00 0.00 69 1017.4
20260503210903 13 0 0.0 0.0 0.00 0.00 0.00 69 1017.5
20260503210803 13 0 0.0 0.0 0.00 0.00 0.00 69 1017.3
20260503210703 13 0 0.0 0.0 0.00 0.00 0.00 69 1017.2
20260503210603 13 0 0.0 0.0 0.00 0.00 0.00 69 1017.5
20260503210503 13 0 0.0 0.0 0.00 0.00 0.00 69 1017.3
20260503210403 13 0 0.0 0.0 0.00 0.00 0.00 69 1017.5
20260503210303 13 0 0.0 0.0 0.00 0.00 0.00 69 1017.5
20260503210203 13 0 0.0 0.0 0.00 0.00 0.00 69 1017.6
20260503210103 13 0 0.0 0.0 0.00 0.00 0.00 69 1017.3
20260503205904 13 0 0.0 0.0 0.00 0.00 0.00 69 1017.4
20260503205803 13 0 0.0 0.0 0.00 0.00 0.00 69 1017.6
20260503205703 13 0 0.0 0.0 0.00 0.00 0.00 69 1017.6
20260503205603 13 0 0.0 0.0 0.00 0.00 0.00 69 1017.4
20260503205503 13 0 0.0 0.0 0.00 0.00 0.00 69 1017.3
20260503205403 13 0 0.0 0.0 0.00 0.00 0.00 69 1017.5
20260503205304 13 0 0.0 0.0 0.00 0.00 0.00 69 1017.6
20260503205203 13 0 0.0 0.0 0.00 0.00 0.00 69 1017.5
20260503205103 13 0 0.0 0.0 0.00 0.00 0.00 69 1017.3
20260503205003 13 0 0.0 0.0 0.00 0.00 0.00 69 1017.5
20260503204903 13 0 0.0 0.0 0.00 0.00 0.00 70 1017.6
20260503204803 13 0 0.0 0.0 0.00 0.00 0.00 70 1017.3
20260503204703 13 0 0.0 0.0 0.00 0.00 0.00 70 1017.6
20260503204603 13 0 0.0 0.0 0.00 0.00 0.00 70 1017.4
20260503204503 13 0 0.0 0.0 0.00 0.00 0.00 70 1017.3
20260503204403 12 0 0.0 0.0 0.00 0.00 0.00 70 1017.5
20260503204303 12 0 0.0 0.0 0.00 0.00 0.00 69 1017.4
20260503204203 12 0 0.0 0.0 0.00 0.00 0.00 69 1017.4
20260503204103 13 0 0.0 0.0 0.00 0.00 0.00 69 1017.4
20260503204003 13 0 0.0 0.0 0.00 0.00 0.00 69 1017.4
20260503203903 13 0 0.0 0.0 0.00 0.00 0.00 69 1017.3
20260503203803 13 0 0.0 0.0 0.00 0.00 0.00 69 1017.6
20260503203703 13 0 0.0 0.0 0.00 0.00 0.00 69 1017.5
20260503203603 13 0 0.0 0.0 0.00 0.00 0.00 69 1017.4
20260503203503 13 0 0.0 0.0 0.00 0.00 0.00 69 1017.3
20260503203403 13 0 0.0 0.0 0.00 0.00 0.00 69 1017.6
20260503203303 13 0 0.0 0.0 0.00 0.00 0.00 69 1017.4
20260503203203 13 0 0.0 0.0 0.00 0.00 0.00 69 1017.4
20260503203103 13 0 0.0 0.0 0.00 0.00 0.00 69 1017.1
20260503203003 13 0 0.0 0.0 0.00 0.00 0.00 69 1017.2
20260503202903 13 0 0.0 0.0 0.00 0.00 0.00 69 1017.4
20260503202803 13 0 0.0 0.0 0.00 0.00 0.00 69 1017.2
20260503202703 13 0 0.0 0.0 0.00 0.00 0.00 69 1017.3
20260503202603 13 0 0.0 0.0 0.00 0.00 0.00 69 1017.1
20260503202503 13 0 0.0 0.0 0.00 0.00 0.00 70 1017.2
20260503202403 13 0 0.0 0.0 0.00 0.00 0.00 70 1017.2
20260503202304 13 0 0.0 0.0 0.00 0.00 0.00 70 1017.2
20260503202203 13 0 0.0 0.0 0.00 0.00 0.00 70 1017.2
20260503202103 13 0 0.0 0.0 0.00 0.00 0.00 70 1017.2
20260503202003 13 0 0.0 0.0 0.00 0.00 0.00 70 1017.2
20260503201903 13 0 0.0 0.0 0.00 0.00 0.00 70 1017.3
20260503201803 13 0 0.0 0.0 0.00 0.00 0.00 70 1017.2
20260503201703 13 0 0.0 0.0 0.00 0.00 0.00 70 1017.1
20260503201603 13 0 0.0 0.0 0.00 0.00 0.00 70 1016.9
20260503201503 13 0 0.0 0.0 0.00 0.00 0.00 70 1017.2
20260503201403 13 0 0.0 0.0 0.00 0.00 0.00 70 1017.3
20260503201303 13 0 0.0 0.0 0.00 0.00 0.00 70 1017.3
20260503201203 13 0 0.0 0.0 0.00 0.00 0.00 70 1017.2
20260503201103 13 0 0.0 0.0 0.00 0.00 0.00 70 1017.3
20260503201003 13 0 0.0 0.0 0.00 0.00 0.00 70 1017.2
20260503200903 13 0 0.0 0.0 0.00 0.00 0.00 70 1017.1
20260503200803 13 0 0.0 0.0 0.00 0.00 0.00 70 1017.2
20260503200703 13 0 0.0 0.0 0.00 0.00 0.00 70 1017.2
20260503200603 13 0 0.0 0.0 0.00 0.00 0.00 70 1017.2
20260503200503 13 0 0.0 0.0 0.00 0.00 0.00 70 1017.1
20260503200403 13 0 0.0 0.0 0.00 0.00 0.00 70 1017.3
20260503200303 13 0 0.0 0.0 0.00 0.00 0.00 70 1017.2
20260503200203 13 0 0.0 0.0 0.00 0.00 0.00 70 1017.1
20260503200003 13 0 0.0 0.0 0.00 0.00 0.00 70 1017.3
20260503195903 13 0 0.0 0.0 0.00 0.00 0.00 69 1017.3
20260503195803 13 0 0.0 0.0 0.00 0.00 0.00 69 1017.1
20260503195703 13 0 0.0 0.0 0.00 0.00 0.00 69 1017.2
20260503195603 13 0 0.0 0.0 0.00 0.00 0.00 69 1017.3
20260503195503 13 0 0.0 0.0 0.00 0.00 0.00 69 1017.1
20260503195403 13 0 0.0 0.0 0.00 0.00 0.00 69 1017.1
20260503195304 13 0 0.0 0.0 0.00 0.00 0.00 69 1017.2
20260503195203 13 0 0.0 0.0 0.00 0.00 0.00 69 1017.3
20260503195103 13 0 0.0 0.0 0.00 0.00 0.00 69 1017.2
20260503195003 13 0 0.0 0.0 0.00 0.00 0.00 69 1017.1
20260503194903 13 0 0.0 0.0 0.00 0.00 0.00 69 1017.0
20260503194803 13 0 0.0 0.0 0.00 0.00 0.00 69 1017.2
20260503194704 13 0 0.0 0.0 0.00 0.00 0.00 69 1017.3
20260503194607 13 0 0.0 0.0 0.00 0.00 0.00 69 1017.2
20260503194504 13 0 0.0 0.0 0.00 0.00 0.00 69 1017.1
20260503194403 13 0 0.0 0.0 0.00 0.00 0.00 69 1017.2
20260503194303 13 0 0.0 0.0 0.00 0.00 0.00 69 1017.0
20260503194205 13 0 0.0 0.0 0.00 0.00 0.00 69 1016.8
20260503194103 13 0 0.0 0.0 0.00 0.00 0.00 69 1017.3
20260503194003 13 0 0.0 0.0 0.00 0.00 0.00 69 1017.1
20260503193903 13 0 0.0 0.0 0.00 0.00 0.00 69 1017.0
20260503193804 13 0 0.0 0.0 0.00 0.00 0.00 69 1017.1
20260503193703 13 0 0.0 0.0 0.00 0.00 0.00 69 1017.1
20260503193603 13 0 0.0 0.0 0.00 0.00 0.00 69 1017.0
20260503193503 13 0 0.0 0.0 0.00 0.00 0.00 69 1017.0
20260503193403 13 0 0.0 0.0 0.00 0.00 0.00 69 1017.2
20260503193303 13 0 0.0 0.0 0.00 0.00 0.00 69 1017.0
20260503193203 13 0 0.0 0.0 0.00 0.00 0.00 69 1017.0
20260503193103 13 0 0.0 0.0 0.00 0.00 0.00 69 1017.1
20260503193003 13 0 0.0 0.0 0.00 0.00 0.00 69 1017.1
20260503192903 13 0 0.0 0.0 0.00 0.00 0.00 69 1017.0
20260503192803 13 0 0.0 0.0 0.00 0.00 0.00 69 1017.0
20260503192703 13 0 0.0 0.0 0.00 0.00 0.00 69 1017.2
20260503192603 13 0 0.0 0.0 0.00 0.00 0.00 69 1017.0
20260503192503 13 0 0.0 0.0 0.00 0.00 0.00 69 1016.9
20260503192403 13 0 0.0 0.0 0.00 0.00 0.00 69 1016.9
20260503192305 13 0 0.0 0.0 0.00 0.00 0.00 69 1017.1
20260503192203 13 0 0.0 0.0 0.00 0.00 0.00 69 1016.8
20260503192103 13 0 0.0 0.0 0.00 0.00 0.00 69 1017.0
20260503192003 13 0 0.0 0.0 0.00 0.00 0.00 69 1017.1
20260503191903 13 0 0.0 0.0 0.00 0.00 0.00 69 1016.8
20260503191803 13 0 0.0 0.0 0.00 0.00 0.00 69 1016.9
20260503191703 13 0 0.0 0.0 0.00 0.00 0.00 69 1016.9
20260503191603 13 0 0.0 0.0 0.00 0.00 0.00 69 1016.9
20260503191503 13 0 0.0 0.0 0.00 0.00 0.00 69 1016.9
20260503191403 13 0 0.0 0.0 0.00 0.00 0.00 69 1016.9
20260503191303 13 0 0.0 0.0 0.00 0.00 0.00 69 1017.1
20260503191203 13 0 0.0 0.0 0.00 0.00 0.00 69 1017.0
20260503191103 13 0 0.0 0.0 0.00 0.00 0.00 69 1016.8
20260503191003 13 0 0.0 0.0 0.00 0.00 0.00 69 1017.0
20260503190903 13 0 0.0 0.0 0.00 0.00 0.00 69 1017.0
20260503190803 13 0 0.0 0.0 0.00 0.00 0.00 69 1017.0
20260503190703 13 0 0.0 0.0 0.00 0.00 0.00 69 1017.0
20260503190604 13 0 0.0 0.0 0.00 0.00 0.00 69 1016.9
20260503190503 13 0 0.0 0.0 0.00 0.00 0.00 69 1016.9
20260503190403 13 0 0.0 0.0 0.00 0.00 0.00 69 1017.0
20260503190303 13 0 0.0 0.0 0.00 0.00 0.00 69 1016.7
20260503190203 13 0 0.0 0.0 0.00 0.00 0.00 69 1017.1
20260503190103 13 0 0.0 0.0 0.00 0.00 0.00 69 1016.7
20260503190003 13 0 0.0 0.0 0.00 0.00 0.00 69 1016.8
20260503185903 13 0 0.0 0.0 0.00 0.00 0.00 69 1016.8
20260503185803 13 0 0.0 0.0 0.00 0.00 0.00 69 1016.8
20260503185703 13 0 0.0 0.0 0.00 0.00 0.00 69 1016.6
20260503185603 13 0 0.0 0.0 0.00 0.00 0.00 69 1016.8
20260503185503 13 0 0.0 0.0 0.00 0.00 0.00 69 1016.8
20260503185403 13 0 0.0 0.0 0.00 0.00 0.00 69 1016.7
20260503185304 13 0 0.0 0.0 0.00 0.00 0.00 69 1016.9
20260503185203 13 0 0.0 0.0 0.00 0.00 0.00 69 1016.7
20260503185103 13 0 0.0 0.0 0.00 0.00 0.00 69 1016.9
20260503184903 13 0 0.0 0.0 0.00 0.00 0.00 69 1016.9
20260503184803 13 0 0.0 0.0 0.00 0.00 0.00 69 1016.5
20260503184703 13 0 0.0 0.0 0.00 0.00 0.00 69 1016.6
20260503184603 13 0 0.0 0.0 0.00 0.00 0.00 69 1016.7
20260503184503 13 0 0.0 0.0 0.00 0.00 0.00 69 1016.7
20260503184403 13 0 0.0 0.0 0.00 0.00 0.00 69 1016.6
20260503184303 13 0 0.0 0.0 0.00 0.00 0.00 69 1016.7
20260503184203 13 0 0.0 0.0 0.00 0.00 0.00 69 1016.8
20260503184103 13 0 0.0 0.0 0.00 0.00 0.00 69 1016.8
20260503184003 13 0 0.0 0.0 0.00 0.00 0.00 69 1016.6
20260503183903 13 0 0.0 0.0 0.00 0.00 0.00 69 1016.8
20260503183803 13 0 0.0 0.0 0.00 0.00 0.00 69 1016.7
20260503183704 13 0 0.0 0.0 0.00 0.00 0.00 69 1016.8
20260503183603 13 0 0.0 0.0 0.00 0.00 0.00 69 1017.0
20260503183503 13 0 0.0 0.0 0.00 0.00 0.00 69 1016.7
20260503183403 13 0 0.0 0.0 0.00 0.00 0.00 69 1016.7
20260503183303 13 0 0.0 0.0 0.00 0.00 0.00 69 1016.8
20260503183203 13 0 0.0 0.0 0.00 0.00 0.00 69 1016.9
20260503183103 13 0 0.0 0.0 0.00 0.00 0.00 69 1016.8
20260503183004 13 0 0.0 0.0 0.00 0.00 0.00 69 1016.9
20260503182903 13 0 0.0 0.0 0.00 0.00 0.00 69 1016.6
20260503182803 13 0 0.0 0.0 0.00 0.00 0.00 69 1016.7
20260503182704 13 0 0.0 0.0 0.00 0.00 0.00 69 1016.5
20260503182603 13 0 0.0 0.0 0.00 0.00 0.00 69 1016.7
20260503182504 13 0 0.0 0.0 0.00 0.00 0.00 69 1016.5
20260503182403 13 0 0.0 0.0 0.00 0.00 0.00 69 1016.5
20260503182305 13 315 0.0 3.2 0.00 0.00 0.00 69 1016.5
20260503182203 14 289 0.0 3.2 0.00 0.00 0.00 69 1016.6
20260503182103 14 287 1.6 6.4 0.00 0.00 0.00 69 1016.7
20260503182004 14 283 1.6 6.4 0.00 0.00 0.00 69 1016.4
20260503181903 14 280 1.6 6.4 0.00 0.00 0.00 69 1016.5
20260503181803 14 292 3.2 6.4 0.00 0.00 0.00 68 1016.7
20260503181703 14 292 3.2 6.4 0.00 0.00 0.00 68 1016.4
20260503181603 14 296 4.8 6.4 0.00 0.00 0.00 68 1016.4
20260503181504 14 295 4.8 6.4 0.00 0.00 0.00 68 1016.5
20260503181403 14 292 4.8 6.4 0.00 0.00 0.00 68 1016.6
20260503181303 14 289 6.4 6.4 0.00 0.00 0.00 68 1016.5
20260503181203 14 288 6.4 6.4 0.00 0.00 0.00 68 1016.5
20260503181103 14 288 6.4 6.4 0.00 0.00 0.00 68 1016.7
20260503181004 14 287 6.4 6.4 0.00 0.00 0.00 68 1016.5
20260503180903 14 287 6.4 6.4 0.00 0.00 0.00 68 1016.6
20260503180803 14 281 6.4 6.4 0.00 0.00 0.00 68 1016.5
20260503180703 14 276 6.4 6.4 0.00 0.00 0.00 68 1016.6
20260503180603 14 272 6.4 6.4 0.00 0.00 0.00 68 1016.7
20260503180503 14 269 6.4 6.4 0.00 0.00 0.00 68 1016.5
20260503180403 14 267 6.4 6.4 0.00 0.00 0.00 68 1016.6
20260503180303 14 267 6.4 6.4 0.00 0.00 0.00 68 1016.5
20260503180203 14 267 6.4 9.7 0.00 0.00 0.00 68 1016.5
20260503180103 14 266 6.4 9.7 0.00 0.00 0.00 68 1016.5
20260503180004 14 267 8.0 9.7 0.00 0.00 0.00 68 1016.5
20260503175903 14 268 8.0 9.7 0.00 0.00 0.00 68 1016.6
20260503175803 14 264 8.0 11.3 0.00 0.00 0.00 68 1016.4
20260503175703 14 263 8.0 11.3 0.00 0.00 0.00 68 1016.5
20260503175603 14 261 8.0 11.3 0.00 0.00 0.00 68 1016.6
20260503175503 14 261 8.0 11.3 0.00 0.00 0.00 68 1016.3
20260503175403 14 262 8.0 11.3 0.00 0.00 0.00 68 1016.5
20260503175304 14 261 8.0 11.3 0.00 0.00 0.00 68 1016.6
20260503175203 14 261 8.0 11.3 0.00 0.00 0.00 68 1016.4
20260503175103 14 259 9.7 11.3 0.00 0.00 0.00 68 1016.4
20260503175003 14 259 9.7 11.3 0.00 0.00 0.00 68 1016.5
20260503174903 14 258 9.7 11.3 0.00 0.00 0.00 68 1016.6
20260503174803 14 263 9.7 11.3 0.00 0.00 0.00 67 1016.5
20260503174703 14 262 9.7 12.9 0.00 0.00 0.00 67 1016.5
20260503174603 14 264 9.7 12.9 0.00 0.00 0.00 67 1016.5
20260503174503 14 265 9.7 12.9 0.00 0.00 0.00 67 1016.5
20260503174403 14 265 9.7 12.9 0.00 0.00 0.00 67 1016.3
20260503174303 14 265 9.7 12.9 0.00 0.00 0.00 67 1016.5
20260503174203 14 262 9.7 12.9 0.00 0.00 0.00 67 1016.4
20260503174103 14 260 9.7 12.9 0.00 0.00 0.00 67 1016.6
20260503174003 14 260 9.7 12.9 0.00 0.00 0.00 68 1016.5
20260503173903 14 259 9.7 12.9 0.00 0.00 0.00 68 1016.5
20260503173803 14 257 9.7 12.9 0.00 0.00 0.00 68 1016.6
20260503173703 14 254 9.7 12.9 0.00 0.00 0.00 68 1016.4
20260503173603 15 253 9.7 12.9 0.00 0.00 0.00 69 1016.6
20260503173503 15 251 11.3 12.9 0.00 0.00 0.00 69 1016.4
20260503173403 15 251 11.3 14.5 0.00 0.00 0.00 69 1016.6
20260503173303 15 252 11.3 14.5 0.00 0.00 0.00 69 1016.4
20260503173203 15 253 11.3 14.5 0.00 0.00 0.00 69 1016.4
20260503173103 15 253 12.9 14.5 0.00 0.00 0.00 69 1016.5
20260503173003 15 254 12.9 14.5 0.00 0.00 0.00 69 1016.4
20260503172903 15 256 12.9 17.7 0.00 0.00 0.00 68 1016.5
20260503172803 15 255 12.9 17.7 0.00 0.00 0.00 68 1016.6
20260503172703 15 257 12.9 17.7 0.00 0.00 0.00 68 1016.5
20260503172603 15 257 12.9 17.7 0.00 0.00 0.00 68 1016.4
20260503172504 15 257 12.9 17.7 0.00 0.00 0.00 68 1016.5
20260503172403 15 255 12.9 17.7 0.00 0.00 0.00 68 1016.4
20260503172305 15 254 12.9 17.7 0.00 0.00 0.00 68 1016.5
20260503172203 15 255 12.9 17.7 0.00 0.00 0.00 68 1016.4
20260503172103 15 257 12.9 17.7 0.00 0.00 0.00 68 1016.6
20260503172003 15 258 12.9 17.7 0.00 0.00 0.00 68 1016.5
20260503171903 15 258 11.3 17.7 0.00 0.00 0.00 68 1016.3
20260503171803 15 254 11.3 14.5 0.00 0.00 0.00 68 1016.5
20260503171703 15 253 11.3 14.5 0.00 0.00 0.00 68 1016.4
20260503171603 15 254 11.3 14.5 0.00 0.00 0.00 68 1016.5
20260503171503 15 256 12.9 14.5 0.00 0.00 0.00 68 1016.2
20260503171403 15 256 12.9 14.5 0.00 0.00 0.00 68 1016.5
20260503171303 15 257 12.9 14.5 0.00 0.00 0.00 68 1016.3
20260503171203 15 255 12.9 14.5 0.00 0.00 0.00 68 1016.2
20260503171103 15 254 12.9 14.5 0.00 0.00 0.00 68 1016.4
20260503171003 15 254 12.9 14.5 0.00 0.00 0.00 68 1016.5
20260503170903 15 255 12.9 14.5 0.00 0.00 0.00 68 1016.5
20260503170803 15 258 12.9 14.5 0.00 0.00 0.00 68 1016.3
20260503170703 15 259 12.9 14.5 0.00 0.00 0.00 68 1016.2
20260503170603 15 262 12.9 14.5 0.00 0.00 0.00 68 1016.3
20260503170503 15 261 12.9 14.5 0.00 0.00 0.00 68 1016.4
20260503170403 15 263 12.9 14.5 0.00 0.00 0.00 68 1016.2
20260503170303 15 264 12.9 14.5 0.00 0.00 0.00 68 1016.3
20260503170203 15 263 12.9 14.5 0.00 0.00 0.00 68 1016.2
20260503170103 15 264 12.9 14.5 0.00 0.00 0.00 68 1016.1
20260503160203 16 247 17.7 22.5 0.00 0.00 0.00 82 1016.3
20260503160103 16 244 17.7 22.5 0.00 0.00 0.00 81 1016.5
20260503151003 16 240 20.9 25.7 0.00 0.00 0.00 77 1016.5
20260503150903 16 243 20.9 25.7 0.00 0.00 0.00 77 1016.2
20260503150803 16 249 20.9 25.7 0.00 0.00 0.00 77 1016.3
20260503150703 17 250 20.9 25.7 0.00 0.00 0.00 77 1016.6
20260503150603 17 247 20.9 25.7 0.00 0.00 0.00 77 1016.3
20260503150503 16 247 20.9 25.7 0.00 0.00 0.00 78 1016.5
20260503150403 17 245 20.9 25.7 0.00 0.00 0.00 79 1016.5
20260503150303 17 247 19.3 25.7 0.00 0.00 0.00 79 1016.4
20260503150203 17 247 19.3 24.1 0.00 0.00 0.00 80 1016.5
20260503150103 16 244 19.3 24.1 0.00 0.00 0.00 81 1016.5